EXS65PD LEPA-LEMD

Flight info

Callsign EXS65PD
Flight time 0h 58m
Altitude 31000
Route EPAMA4A EPAMA N733 PRADO PRADO3D
Aircraft B738/M-SDE2E3FGHIRWXY/LB1

Departure

Time 2026-05-04 16:26
Airport Palma de Mallorca Airport (LEPA)

Arrival

Time 2026-05-04 17:24
Airport Adolfo Suárez Madrid–Barajas Airport (LEMD)
Time Latitude Longitude Altitude Speed Heading
2026-05-04 16:01 39.54756 2.73628 36 ft 0 kts 58°
2026-05-04 16:16 39.54744 2.73595 34 ft 2 kts 81°
2026-05-04 16:16 39.54762 2.73538 36 ft 2 kts 143°
2026-05-04 16:17 39.54774 2.73528 36 ft 0 kts 149°
2026-05-04 16:19 39.54766 2.73534 36 ft 5 kts 149°
2026-05-04 16:20 39.54676 2.73707 37 ft 10 kts 61°
2026-05-04 16:20 39.54781 2.73929 37 ft 21 kts 57°
2026-05-04 16:21 39.54984 2.74009 37 ft 6 kts 338°
2026-05-04 16:22 39.55109 2.73902 37 ft 18 kts 329°
2026-05-04 16:22 39.55570 2.73539 37 ft 21 kts 329°
2026-05-04 16:23 39.55809 2.73824 37 ft 21 kts 58°
2026-05-04 16:24 39.56126 2.74447 37 ft 0 kts 20°
2026-05-04 16:25 39.56126 2.74448 37 ft 1 kts 19°
2026-05-04 16:26 39.56013 2.73812 37 ft 92 kts 238°
2026-05-04 16:26 39.54146 2.69908 1492 ft 215 kts 235°
2026-05-04 16:27 39.52497 2.66399 3066 ft 226 kts 236°
2026-05-04 16:28 39.49628 2.60983 5151 ft 250 kts 236°
2026-05-04 16:28 39.46719 2.55315 7675 ft 255 kts 236°
2026-05-04 16:29 39.45219 2.46435 10453 ft 288 kts 276°
2026-05-04 16:30 39.46481 2.37941 11337 ft 342 kts 278°
2026-05-04 16:31 39.46720 2.36337 11699 ft 344 kts 278°
2026-05-04 16:31 39.48055 2.27184 13843 ft 351 kts 278°
2026-05-04 16:32 39.49390 2.17764 15740 ft 359 kts 277°
2026-05-04 16:33 39.50284 2.11384 16955 ft 365 kts 277°
2026-05-04 16:33 39.51197 2.04838 18156 ft 371 kts 277°
2026-05-04 16:34 39.52118 1.98212 19210 ft 375 kts 277°
2026-05-04 16:34 39.52498 1.95470 19635 ft 377 kts 277°
2026-05-04 16:35 39.52962 1.92109 20143 ft 380 kts 277°
2026-05-04 16:35 39.54366 1.81902 21614 ft 387 kts 277°
2026-05-04 16:36 39.54825 1.78553 22064 ft 390 kts 277°
2026-05-04 16:36 39.55784 1.71530 22981 ft 396 kts 277°
2026-05-04 16:37 39.56745 1.64451 23796 ft 401 kts 276°
2026-05-04 16:37 39.57229 1.60881 24155 ft 403 kts 276°
2026-05-04 16:37 39.58200 1.53683 24871 ft 408 kts 276°
2026-05-04 16:38 39.59179 1.46397 25558 ft 412 kts 276°
2026-05-04 16:39 39.60277 1.35358 26491 ft 414 kts 264°
2026-05-04 16:39 39.59814 1.27909 27162 ft 417 kts 263°
2026-05-04 16:40 39.59337 1.20379 27745 ft 421 kts 263°
2026-05-04 16:40 39.58889 1.12772 28376 ft 424 kts 263°
2026-05-04 16:41 39.58453 1.05162 29215 ft 421 kts 263°
2026-05-04 16:41 39.57801 0.93869 30403 ft 417 kts 263°
2026-05-04 16:42 39.57142 0.82694 31463 ft 412 kts 263°
2026-05-04 16:43 39.56707 0.75415 32077 ft 411 kts 263°
2026-05-04 16:43 39.56265 0.68078 32757 ft 408 kts 263°
2026-05-04 16:43 39.56043 0.64433 33054 ft 407 kts 263°
2026-05-04 16:44 39.55151 0.49893 34272 ft 402 kts 263°
2026-05-04 16:45 39.54704 0.42677 34801 ft 399 kts 263°
2026-05-04 16:46 39.53646 0.25930 34897 ft 396 kts 263°
2026-05-04 16:47 39.52719 0.11794 34903 ft 391 kts 263°
2026-05-04 16:48 39.51787 -0.02198 34908 ft 391 kts 263°
2026-05-04 16:49 39.50831 -0.16299 34895 ft 395 kts 262°
2026-05-04 16:50 39.49848 -0.30550 34889 ft 399 kts 262°
2026-05-04 16:51 39.49096 -0.41297 34887 ft 400 kts 262°
2026-05-04 16:51 39.49497 -0.48440 34890 ft 408 kts 279°
2026-05-04 16:52 39.51576 -0.55327 34897 ft 417 kts 294°
2026-05-04 16:53 39.55971 -0.65099 34885 ft 418 kts 295°
2026-05-04 16:54 39.61732 -0.78085 34901 ft 414 kts 294°
2026-05-04 16:55 39.70060 -0.97126 34116 ft 399 kts 294°
2026-05-04 16:56 39.72776 -1.03358 33173 ft 394 kts 294°
2026-05-04 16:56 39.76774 -1.12563 31962 ft 386 kts 294°
2026-05-04 16:57 39.78086 -1.15598 31571 ft 383 kts 293°
2026-05-04 16:57 39.80653 -1.21545 30840 ft 377 kts 293°
2026-05-04 16:58 39.84511 -1.30372 29659 ft 370 kts 294°
2026-05-04 16:58 39.85778 -1.33270 29254 ft 367 kts 294°
2026-05-04 16:59 39.88275 -1.38996 28508 ft 359 kts 294°
2026-05-04 17:00 39.93089 -1.50114 27033 ft 348 kts 293°
2026-05-04 17:00 39.96603 -1.58294 25982 ft 341 kts 293°
2026-05-04 17:01 39.98902 -1.63659 25284 ft 337 kts 293°
2026-05-04 17:01 40.01178 -1.68976 24605 ft 334 kts 292°
2026-05-04 17:02 40.03429 -1.74247 23928 ft 332 kts 293°
2026-05-04 17:02 40.05679 -1.79519 23211 ft 330 kts 293°
2026-05-04 17:03 40.06789 -1.82126 22830 ft 328 kts 293°
2026-05-04 17:03 40.07892 -1.84715 22471 ft 325 kts 293°
2026-05-04 17:03 40.10076 -1.89852 21788 ft 321 kts 293°
2026-05-04 17:04 40.12225 -1.94915 21134 ft 316 kts 293°
2026-05-04 17:04 40.14340 -1.99906 20502 ft 312 kts 293°
2026-05-04 17:05 40.16428 -2.04854 19836 ft 309 kts 293°
2026-05-04 17:05 40.18495 -2.09772 19185 ft 307 kts 293°
2026-05-04 17:06 40.20549 -2.14666 18541 ft 306 kts 293°
2026-05-04 17:06 40.21568 -2.17099 18216 ft 305 kts 293°
2026-05-04 17:07 40.23580 -2.21899 17524 ft 301 kts 293°
2026-05-04 17:07 40.24255 -2.23511 17320 ft 299 kts 293°
2026-05-04 17:07 40.25571 -2.26663 16895 ft 296 kts 292°
2026-05-04 17:07 40.26203 -2.29153 16582 ft 284 kts 272°
2026-05-04 17:08 40.26281 -2.31710 16303 ft 280 kts 266°
2026-05-04 17:08 40.26226 -2.36804 15690 ft 281 kts 266°
2026-05-04 17:08 40.26196 -2.39370 15384 ft 285 kts 266°
2026-05-04 17:09 40.26170 -2.41999 15071 ft 292 kts 266°
2026-05-04 17:09 40.26148 -2.44680 14741 ft 295 kts 267°
2026-05-04 17:09 40.26131 -2.47334 14571 ft 288 kts 267°
2026-05-04 17:10 40.26100 -2.52456 14291 ft 273 kts 267°
2026-05-04 17:10 40.26056 -2.59549 13943 ft 250 kts 266°
2026-05-04 17:11 40.26045 -2.61858 13725 ft 248 kts 267°
2026-05-04 17:11 40.26038 -2.64125 13480 ft 249 kts 267°
2026-05-04 17:11 40.26027 -2.68599 13065 ft 248 kts 267°
2026-05-04 17:12 40.26027 -2.70878 12616 ft 257 kts 268°
2026-05-04 17:12 40.26214 -2.75845 11360 ft 281 kts 273°
2026-05-04 17:13 40.27435 -2.82855 11018 ft 262 kts 284°
2026-05-04 17:14 40.27878 -2.89796 9909 ft 257 kts 242°
2026-05-04 17:14 40.27165 -2.91937 9640 ft 256 kts 249°
2026-05-04 17:14 40.26338 -2.96431 9125 ft 253 kts 259°
2026-05-04 17:15 40.26134 -2.98710 8868 ft 251 kts 262°
2026-05-04 17:15 40.25932 -3.03177 8337 ft 240 kts 265°
2026-05-04 17:16 40.25866 -3.07441 8056 ft 236 kts 267°
2026-05-04 17:16 40.25830 -3.13787 8005 ft 231 kts 271°
2026-05-04 17:17 40.26053 -3.15887 8015 ft 233 kts 277°
2026-05-04 17:17 40.26912 -3.21989 7989 ft 221 kts 277°
2026-05-04 17:18 40.27183 -3.23998 7715 ft 228 kts 277°
2026-05-04 17:18 40.27733 -3.28126 7209 ft 230 kts 277°
2026-05-04 17:19 40.28330 -3.32230 6718 ft 230 kts 289°
2026-05-04 17:19 40.30237 -3.35627 6294 ft 230 kts 307°
2026-05-04 17:20 40.32417 -3.38600 5632 ft 238 kts 320°
2026-05-04 17:20 40.35102 -3.41161 4943 ft 231 kts 319°
2026-05-04 17:20 40.36350 -3.42428 4627 ft 223 kts 319°
2026-05-04 17:21 40.38682 -3.44799 4043 ft 200 kts 317°
2026-05-04 17:21 40.40716 -3.46866 3570 ft 170 kts 317°
2026-05-04 17:22 40.41607 -3.47771 3386 ft 153 kts 317°
2026-05-04 17:22 40.42396 -3.48572 3162 ft 137 kts 316°
2026-05-04 17:23 40.44591 -3.50772 2611 ft 133 kts 319°
2026-05-04 17:23 40.45321 -3.51509 2424 ft 134 kts 318°
2026-05-04 17:23 40.46767 -3.52998 2097 ft 132 kts 319°
2026-05-04 17:24 40.47480 -3.53731 1905 ft 127 kts 319°
2026-05-04 17:24 40.48564 -3.54837 1928 ft 31 kts 322°
2026-05-04 17:25 40.48717 -3.55017 1933 ft 28 kts 314°
2026-05-04 17:25 40.48887 -3.55443 1939 ft 25 kts 308°
2026-05-04 17:26 40.49126 -3.55701 1945 ft 23 kts 321°
2026-05-04 17:26 40.49276 -3.55990 1951 ft 7 kts 269°
2026-05-04 17:27 40.49291 -3.56110 1954 ft 7 kts 243°
2026-05-04 17:27 40.49112 -3.56141 1956 ft 21 kts 179°
2026-05-04 17:28 40.48782 -3.56164 1961 ft 21 kts 227°
2026-05-04 17:29 40.48769 -3.56704 1983 ft 19 kts 270°
2026-05-04 17:29 40.48767 -3.57195 1993 ft 17 kts 269°
2026-05-04 17:30 40.48766 -3.57637 1997 ft 15 kts 270°
2026-05-04 17:31 40.48755 -3.57906 1997 ft 14 kts 236°
2026-05-04 17:31 40.48472 -3.57838 2002 ft 17 kts 152°
2026-05-04 17:32 40.48283 -3.57661 2001 ft 19 kts 142°
2026-05-04 17:33 40.47954 -3.57327 1992 ft 22 kts 142°
2026-05-04 17:33 40.47829 -3.57201 1990 ft 23 kts 142°
2026-05-04 17:34 40.47507 -3.56879 1982 ft 21 kts 143°
2026-05-04 17:34 40.47357 -3.56721 1976 ft 22 kts 141°
2026-05-04 17:35 40.46896 -3.56469 1967 ft 19 kts 219°
2026-05-04 17:35 40.46887 -3.56660 1966 ft 9 kts 280°
2026-05-04 17:35 40.46899 -3.56739 1967 ft 9 kts 294°
2026-05-04 17:36 40.46905 -3.56784 1968 ft 1 kts 276°
2026-05-04 17:36 40.46905 -3.56787 1968 ft 1 kts 277°